Location: Archamps
(46.1365°N, 6.1329°E)
Time: 10:52:38
(UTC+00:00)

CZ-6A DEB - Pass Details

Date: 23 February 2024
Orbit: 823 x 884 km, 98.8° (Epoch: 12 April)

Event Time Altitude Azimuth Distance (km) Brightness Sun altitude
Rises 17:52:26 0° 196° (SSW) 3,470 ? -7.7°
Reaches altitude 10° 17:55:11 10° 208° (SSW) 2,531 ? -8.2°
Maximum altitude 17:59:55 28° 266° (W) 1,601 ? -9.0°
Drops below altitude 10° 18:04:40 10° 324° (NW) 2,518 ? -9.8°
Sets 18:07:24 0° 336° (NNW) 3,450 ? -10.3°
